Weather in Novoye Adelyakovo

Russia / Samara Oblast     54°28′59″N   51°08′30″E
temp.,
°C
wind,
m/s
gust,
m/s
humid.,
%
clouds,
%
prec.,
mm/h
press.,
hPa
HPBL,
m
2 march, tue
tue201:00−19ssw349939 0.0 101883
04:00−15ssw6109670 0.1 1015255
07:00−13ssw71395100 0.0 1011355
10:00−10ssw81394100 1.3 1007495
13:00−6ssw91594100 1.3 1004633
16:00−1sw91495100 2.1 1001812
19:000wsw71298100 1.6 1000592
22:00−1w5998100 2.4 1000416
3 march, wed
wed301:00−5w479789 0.1 1000147
04:00−8wsw349876 0.1 100176
07:00−9wsw359793 0.1 1000108
10:00−7w359795 0.2 1002192
13:00−4w469596 0.1 1002399
16:00−4wnw579197 0.2 1002694
19:00−6wnw5996100 0.3 1003337
22:00−8nw4119499 0.6 1005341
4 march, thu
thu401:00−11w389798 0.1 1006164
04:00−12wsw489798 0.1 1007150
07:00−13sw499778 0.0 1006159
10:00−9sw6119489 0.4 1006382
13:00−6sw71193100 0.1 1004540
16:00−3sw81494100 0.4 1002899
19:00−2sw91694100 0.9 999804
22:000sw81497100 1.9 998934
5 march, fri
fri501:00−1wsw91696100 1.4 997970
04:00−1wsw101696100 2.6 997918
07:00−1wsw91496100 1.7 998775
10:00−3wnw61094100 3.5 1001674
13:00−4wnw579099 0.1 1004540
16:00−6wnw478980 0.1 1008480
19:00−12wnw34920 0.0 101162
22:00−15w23920 0.0 101421
6 march, sat
sat601:00−16wsw129443 0.0 101520
04:00−15s129372 0.0 101520
07:00−13ese2293100 0.0 101368
10:00−4ese4797100 5.6 1000250
13:00−4n4697100 3.4 998202
16:00−7nnw6993100 4.9 1000484
19:00−12nw3596100 0.1 100398
22:00−13wnw349795 0.1 100777